Regional Weather Roundup
Issued by NWS

Home | Current Version | Previous Version | Text Only | Print | Product List | Glossary On
Versions: 1 2 3 4 5 6 7 8 9 10 11 12 13 14 15 16 17 18 19 20 21 22 23 24 25 26 27 28 29 30 31 32 33 34 35 36 37 38 39 40 41 42 43 44 45 46 47 48 49 50
000
ASUS43 KDMX 210006
RWRIA

WEATHER ROUNDUP FOR IOWA
NATIONAL WEATHER SERVICE DES MOINES IA
700 PM CDT WED SEP 20 2017

NOTE: "FAIR" INDICATES FEW OR NO CLOUDS BELOW 12,000 FEET WITH NO
SIGNIFICANT WEATHER AND/OR OBSTRUCTIONS TO VISIBILITY.

* - THESE STATIONS ARE NOT NWS STATIONS...THUS NOT UNDER NWS
QUALITY CONTROL.  THEY ALSO DO NOT REPORT WEATHER SUCH
AS PRECIPITATION OR FOG.

IAZ001>003-012>014-020>022-031>034-043>046-210100-
   NORTHWEST IOWA

CITY           SKY/WX    TMP DP  RH WIND       PRES   REMARKS
CARROLL *      CLEAR     73  55  53 N3        29.86R
CHEROKEE *     CLEAR     70  53  55 CALM      29.87S
DENISON *      CLEAR     72  55  56 CALM      29.89R
LE MARS *      CLEAR     70  54  56 CALM      29.87S
ORANGE CITY *  CLEAR     72  46  40 CALM      29.88R
SHELDON *      CLEAR     66  59  77 CALM      29.86S
SIOUX CITY     CLEAR     72  48  42 NE5       29.87R
6HR MIN TEMP:  69; 6HR MAX TEMP:  77;

SPENCER        CLEAR     71  49  45 E3        29.88S
6HR MIN TEMP:  71; 6HR MAX TEMP:  76;

STORM LAKE *   CLEAR     70  48  46 N5        29.88S
$$

IAZ055>058-069>071-079>083-090>094-210100-
   SOUTHWEST IOWA

CITY           SKY/WX    TMP DP  RH WIND       PRES   REMARKS
ATLANTIC *     CLEAR     75  59  57 N6        29.85S
AUDUBON *      CLEAR     72  59  64 CALM      29.87S
CLARINDA *     PTCLDY    79  66  65 NE3       29.85R HX  81
COUNCIL BLFS * CLEAR     73  57  56 N5        29.86R
CRESTON *      CLEAR     79  63  57 N8        29.86S HX  80
HARLAN  *      CLEAR     73  57  56 N5        29.90R
LAMONI         CLEAR     81  71  71 S7        29.83R HX  85
6HR MIN TEMP:  81; 6HR MAX TEMP:  87;

RED OAK *      CLEAR     75  63  64 N7        29.84S
SHENANDOAH *   MOCLDY    79  61  53 N3        29.84R HX  80
$$

IAZ047>049-059>061-072>074-084-210100-
   CENTRAL IOWA

CITY           SKY/WX    TMP DP  RH WIND       PRES   REMARKS
AMES           PTCLDY    76  62  62 N8        29.83R
6HR MIN TEMP:  76; 6HR MAX TEMP:  85;

ANKENY *       PTCLDY    79  63  57 N7        29.83S HX  80
BOONE *        PTCLDY    77  57  50 N8        29.84S
CHARITON *     CLEAR     82  72  69 SW5       29.83R HX  87
DES MOINES     PTCLDY    81  61  50 N6        29.82R HX  82
6HR MIN TEMP:  81; 6HR MAX TEMP:  88;

GRINNELL*      PTCLDY    80  70  70 S5        29.84R HX  84
KNOXVILLE *    MOCLDY    81  73  78 W5        29.81S HX  85
MARSHALLTOWN   CLOUDY    77  66  68 N8        29.82R
6HR MIN TEMP:  77; 6HR MAX TEMP:  86; 6HR PCP:  0.12;

NEWTON *       CLOUDY    81  68  65 W6        29.83R HX  83
PELLA *        PTCLDY    82  70  66 CALM      29.83R HX  86
PERRY *          N/A     78  55  44 N5        29.84S
$$

IAZ004>006-015-016-023>025-035-036-210100-
   NORTH CENTRAL IOWA

CITY           SKY/WX    TMP DP  RH WIND       PRES   REMARKS
ALGONA *       CLEAR     70  55  60 N5        29.88S
CLARION *      CLEAR     72  57  60 N6        29.86S
ESTHERVILLE    CLEAR     67  56  67 CALM      29.87S
6HR MIN TEMP:  67; 6HR MAX TEMP:  74;

FORT DODGE *   CLEAR     73  55  53 CALM      29.87R
MASON CITY     CLEAR     69  54  58 N5        29.88R
6HR MIN TEMP:  69; 6HR MAX TEMP:  79;

FOREST CITY *    N/A     68  54  60 N6        29.87S
IOWA FALLS *   CLOUDY    78  60  53 N7        29.86S
$$

IAZ007>011-017>019-026>030-037>042-050>054-066-210100-
   NORTHEAST IOWA

CITY           SKY/WX    TMP DP  RH WIND       PRES   REMARKS
CEDAR RAPIDS   MOCLDY    83  71  67 SW7       29.79S HX  87
6HR MIN TEMP:  83; 6HR MAX TEMP:  89;

CHARLES CITY * CLEAR     73  59  60 N8        29.85S
CLINTON *      CLOUDY   N/A N/A N/A S5        29.82R
DECORAH *      CLOUDY    73  64  73 N6        29.83F
DUBUQUE        LGT RAIN  75  71  87 SW7G20    29.83S
6HR MIN TEMP:  75; 6HR MAX TEMP:  88; 6HR PCP:  0.38;

MONTICELLO *   CLOUDY    82  73  74 CALM      29.79F HX  88
OELWEIN *      CLOUDY    77  73  88 N8G15     29.83S
WATERLOO       CLOUDY    74  68  81 NW5       29.82R
6HR MIN TEMP:  74; 6HR MAX TEMP:  85; 6HR PCP:  0.11;

$$

IAZ064-065-067-068-078-210100-
   EAST CENTRAL IOWA

CITY           SKY/WX    TMP DP  RH WIND       PRES   REMARKS
DAVENPORT      CLOUDY    87  69  54 S5        29.83R HX  91
6HR MIN TEMP:  87; 6HR MAX TEMP:  93;

IOWA CITY      MOCLDY    85  71  63 W7        29.80F HX  90
6HR MIN TEMP:  85; 6HR MAX TEMP:  94;

MT. PLEASANT * LGT RAIN  87  68  53 S5        29.79F HX  90
MUSCATINE *    CLOUDY    81  68  65 CALM      29.79R HX  83
QUAD CITIES    CLOUDY    88  68  51 S8        29.77F HX  91
6HR MIN TEMP:  88; 6HR MAX TEMP:  94;

$$

IAZ062-063-075>077-085>089-095>099-210100-
   SOUTHEAST IOWA

CITY           SKY/WX    TMP DP  RH WIND       PRES   REMARKS
BURLINGTON     MOCLDY    86  72  62 S8        29.80S HX  92
6HR MIN TEMP:  86; 6HR MAX TEMP:  93;

FAIRFIELD *    CLOUDY    82  70  65 W5        29.81S HX  86
FORT MADISON * CLEAR     88  72  58 S5        29.82S HX  94
KEOKUK *       CLEAR     88  70  55 S8        29.81R HX  92
OSKALOOSA *    CLOUDY    82  70  66 SW3       29.82S HX  86
CENTERVILLE *    N/A     81  73  78 CALM      29.85S HX  85
OTTUMWA        CLOUDY    84  70  62 SW3       29.81S HX  88
6HR MIN TEMP:  84; 6HR MAX TEMP:  89;

WASHINGTON *   PTCLDY    82  73  74 W7        29.81F HX  88
$$

ABBREVIATIONS USED IN REMARKS
   TC - TEMPERATURES IN CELSIUS
  WCI - WIND CHILL INDEX
   HX - HEAT INDEX
  VSB - VISIBILITY
$$




USA.gov is the U.S. government's official web portal to all federal, state and local government web resources and services.